Time,TemperatureF,DewpointF,PressureIn,WindDirection,WindDirectionDegrees,WindSpeedMPH,WindSpeedGustMPH,Humidity,HourlyPrecipIn,Conditions,Clouds,dailyrainin,SoftwareType,DateUTC
2013-10-30 00:13:00,57.0,54.0,30.20,ENE,65,0.0,0.0,91,0.00,,,0.00,,2013-10-30 05:13:00,
2013-10-30 00:22:00,58.0,55.0,30.20,ENE,65,0.0,0.0,91,0.00,,,0.00,,2013-10-30 05:22:00,
2013-10-30 00:43:00,58.0,55.0,30.20,ENE,65,0.0,0.0,91,0.00,,,0.00,,2013-10-30 05:43:00,
2013-10-30 00:53:00,57.0,54.0,30.19,ENE,65,0.0,0.0,91,0.00,,,0.00,,2013-10-30 05:53:00,
2013-10-30 01:13:00,57.0,55.0,30.19,ENE,65,0.0,0.0,93,0.00,,,0.00,,2013-10-30 06:13:00,
2013-10-30 01:22:00,57.0,55.0,30.20,WNW,283,0.0,1.0,93,0.00,,,0.00,,2013-10-30 06:22:00,
2013-10-30 01:42:00,57.0,55.0,30.20,ENE,71,0.0,1.0,93,0.00,,,0.00,,2013-10-30 06:42:00,
2013-10-30 01:52:00,57.0,55.0,30.20,NW,307,0.0,1.0,93,0.00,,,0.00,,2013-10-30 06:52:00,
2013-10-30 02:12:00,56.0,54.0,30.20,NW,307,0.0,0.0,93,0.00,,,0.00,,2013-10-30 07:12:00,
2013-10-30 02:22:00,56.0,54.0,30.20,NE,46,0.0,0.0,94,0.00,,,0.00,,2013-10-30 07:22:00,
2013-10-30 02:42:00,56.0,54.0,30.20,ENE,75,1.0,2.0,94,0.00,,,0.00,,2013-10-30 07:42:00,
2013-10-30 02:52:00,55.0,53.0,30.20,ENE,61,0.0,0.0,94,0.00,,,0.00,,2013-10-30 07:52:00,
2013-10-30 03:12:00,56.0,55.0,30.19,ENE,61,0.0,0.0,95,0.00,,,0.00,,2013-10-30 08:12:00,
2013-10-30 03:22:00,56.0,55.0,30.19,East,81,0.0,1.0,95,0.00,,,0.00,,2013-10-30 08:22:00,
2013-10-30 03:42:00,55.0,54.0,30.18,East,81,0.0,0.0,95,0.00,,,0.00,,2013-10-30 08:42:00,
2013-10-30 03:52:00,55.0,54.0,30.19,East,81,0.0,0.0,95,0.00,,,0.00,,2013-10-30 08:52:00,
2013-10-30 04:11:00,55.0,54.0,30.19,East,81,0.0,0.0,95,0.00,,,0.00,,2013-10-30 09:11:00,
2013-10-30 04:22:00,55.0,54.0,30.19,East,81,0.0,0.0,96,0.00,,,0.00,,2013-10-30 09:22:00,
2013-10-30 04:43:00,55.0,54.0,30.18,East,81,0.0,0.0,96,0.00,,,0.00,,2013-10-30 09:43:00,
2013-10-30 04:54:00,55.0,54.0,30.19,East,81,0.0,0.0,96,0.00,,,0.00,,2013-10-30 09:54:00,
2013-10-30 05:13:00,55.0,54.0,30.19,East,80,0.0,0.0,96,0.00,,,0.00,,2013-10-30 10:13:00,
2013-10-30 05:23:00,55.0,54.0,30.19,East,81,0.0,0.0,96,0.00,,,0.00,,2013-10-30 10:23:00,
2013-10-30 05:43:00,55.0,54.0,30.19,East,80,0.0,0.0,96,0.00,,,0.00,,2013-10-30 10:43:00,
2013-10-30 05:53:00,56.0,55.0,30.20,East,81,0.0,0.0,96,0.00,,,0.00,,2013-10-30 10:53:00,
2013-10-30 06:12:00,56.0,55.0,30.20,East,81,0.0,0.0,96,0.00,,,0.00,,2013-10-30 11:12:00,
2013-10-30 06:22:00,56.0,55.0,30.20,East,81,0.0,0.0,96,0.00,,,0.00,,2013-10-30 11:22:00,
2013-10-30 06:42:00,56.0,55.0,30.20,East,81,0.0,0.0,96,0.00,,,0.00,,2013-10-30 11:42:00,
2013-10-30 06:52:00,56.0,55.0,30.21,East,81,0.0,0.0,96,0.00,,,0.00,,2013-10-30 11:52:00,
2013-10-30 07:12:00,56.0,55.0,30.21,East,81,0.0,0.0,96,0.00,,,0.00,,2013-10-30 12:12:00,
2013-10-30 07:22:00,55.0,54.0,30.22,East,81,0.0,0.0,96,0.00,,,0.00,,2013-10-30 12:22:00,
2013-10-30 07:42:00,55.0,54.0,30.22,East,81,0.0,0.0,96,0.00,,,0.00,,2013-10-30 12:42:00,
2013-10-30 07:52:00,56.0,55.0,30.22,East,81,0.0,1.0,96,0.00,,,0.00,,2013-10-30 12:52:00,
2013-10-30 08:11:00,56.0,55.0,30.22,East,81,0.0,1.0,96,0.00,,,0.00,,2013-10-30 13:11:00,
2013-10-30 08:22:00,57.0,56.0,30.22,ENE,76,0.0,1.0,97,0.00,,,0.00,,2013-10-30 13:22:00,
2013-10-30 08:42:00,58.0,57.0,30.22,ENE,75,0.0,2.0,95,0.00,,,0.00,,2013-10-30 13:42:00,
2013-10-30 08:52:00,59.0,57.0,30.22,ENE,74,0.0,2.0,93,0.00,,,0.00,,2013-10-30 13:52:00,
2013-10-30 09:11:00,60.0,58.0,30.22,East,79,0.0,1.0,92,0.00,,,0.00,,2013-10-30 14:11:00,
2013-10-30 09:21:00,62.0,59.0,30.23,ENE,76,1.0,3.0,89,0.00,,,0.00,,2013-10-30 14:21:00,
2013-10-30 09:42:00,64.0,60.0,30.24,East,98,0.0,3.0,86,0.00,,,0.00,,2013-10-30 14:42:00,
2013-10-30 09:52:00,66.0,60.0,30.24,ESE,110,0.0,3.0,80,0.00,,,0.00,,2013-10-30 14:52:00,
2013-10-30 10:11:00,68.0,60.0,30.24,SE,130,1.0,3.0,76,0.00,,,0.00,,2013-10-30 15:11:00,
2013-10-30 10:22:00,70.0,60.0,30.24,ENE,58,2.0,5.0,70,0.00,,,0.00,,2013-10-30 15:22:00,
2013-10-30 10:43:00,72.0,60.0,30.24,SE,127,1.0,7.0,66,0.00,,,0.00,,2013-10-30 15:43:00,
2013-10-30 10:54:00,71.0,58.0,30.23,ESE,110,1.0,5.0,64,0.00,,,0.00,,2013-10-30 15:54:00,
2013-10-30 11:12:00,72.0,59.0,30.23,ESE,113,2.0,5.0,64,0.00,,,0.00,,2013-10-30 16:12:00,
2013-10-30 11:23:00,73.0,59.0,30.22,NE,50,2.0,5.0,62,0.00,,,0.00,,2013-10-30 16:23:00,
2013-10-30 11:43:00,73.0,58.0,30.22,ENE,68,2.0,6.0,59,0.00,,,0.00,,2013-10-30 16:43:00,
2013-10-30 11:53:00,75.0,59.0,30.21,ESE,115,2.0,6.0,57,0.00,,,0.00,,2013-10-30 16:53:00,
2013-10-30 12:12:00,76.0,59.0,30.21,SE,142,3.0,9.0,55,0.00,,,0.00,,2013-10-30 17:12:00,
2013-10-30 12:23:00,78.0,59.0,30.20,SE,137,2.0,7.0,52,0.00,,,0.00,,2013-10-30 17:23:00,
2013-10-30 12:42:00,78.0,59.0,30.20,NNE,22,1.0,5.0,53,0.00,,,0.00,,2013-10-30 17:42:00,
2013-10-30 12:52:00,78.0,59.0,30.20,ENE,67,3.0,6.0,52,0.00,,,0.00,,2013-10-30 17:52:00,
2013-10-30 13:12:00,79.0,59.0,30.19,SSW,201,2.0,6.0,50,0.00,,,0.00,,2013-10-30 18:12:00,
2013-10-30 13:22:00,79.0,59.0,30.18,East,86,2.0,8.0,51,0.00,,,0.00,,2013-10-30 18:22:00,
2013-10-30 13:42:00,77.0,57.0,30.18,ENE,71,1.0,5.0,51,0.00,,,0.00,,2013-10-30 18:42:00,
2013-10-30 13:52:00,78.0,57.0,30.16,SE,135,0.0,4.0,48,0.00,,,0.00,,2013-10-30 18:52:00,
2013-10-30 14:11:00,78.0,58.0,30.15,ENE,58,1.0,4.0,50,0.00,,,0.00,,2013-10-30 19:11:00,
2013-10-30 14:22:00,79.0,58.0,30.15,NE,44,1.0,5.0,48,0.00,,,0.00,,2013-10-30 19:22:00,
2013-10-30 14:42:00,79.0,59.0,30.15,ESE,110,0.0,6.0,50,0.00,,,0.00,,2013-10-30 19:42:00,
2013-10-30 14:52:00,79.0,57.0,30.13,SE,134,1.0,5.0,47,0.00,,,0.00,,2013-10-30 19:52:00,
2013-10-30 15:12:00,79.0,56.0,30.13,SE,132,0.0,3.0,46,0.00,,,0.00,,2013-10-30 20:12:00,
2013-10-30 15:22:00,79.0,56.0,30.13,NE,55,1.0,4.0,46,0.00,,,0.00,,2013-10-30 20:22:00,
2013-10-30 15:52:00,80.0,57.0,30.12,SE,142,1.0,3.0,46,0.00,,,0.00,,2013-10-30 20:52:00,
2013-10-30 16:12:00,79.0,57.0,30.11,East,81,0.0,5.0,47,0.00,,,0.00,,2013-10-30 21:12:00,
2013-10-30 16:22:00,78.0,57.0,30.11,East,101,0.0,3.0,49,0.00,,,0.00,,2013-10-30 21:22:00,
2013-10-30 16:43:00,77.0,59.0,30.11,East,83,0.0,3.0,53,0.00,,,0.00,,2013-10-30 21:43:00,
2013-10-30 16:53:00,76.0,59.0,30.11,East,86,0.0,1.0,56,0.00,,,0.00,,2013-10-30 21:53:00,
2013-10-30 17:13:00,75.0,61.0,30.10,East,84,0.0,1.0,61,0.00,,,0.00,,2013-10-30 22:13:00,
2013-10-30 17:23:00,74.0,60.0,30.10,East,83,0.0,0.0,61,0.00,,,0.00,,2013-10-30 22:23:00,
2013-10-30 17:43:00,72.0,59.0,30.10,East,85,0.0,1.0,64,0.00,,,0.00,,2013-10-30 22:43:00,
2013-10-30 17:53:00,72.0,60.0,30.11,East,90,0.0,1.0,66,0.00,,,0.00,,2013-10-30 22:53:00,
2013-10-30 18:12:00,71.0,59.0,30.10,East,90,0.0,0.0,67,0.00,,,0.00,,2013-10-30 23:12:00,
2013-10-30 18:23:00,69.0,59.0,30.09,East,91,0.0,0.0,70,0.00,,,0.00,,2013-10-30 23:23:00,
2013-10-30 18:42:00,68.0,59.0,30.09,East,89,0.0,0.0,72,0.00,,,0.00,,2013-10-30 23:42:00,
2013-10-30 18:53:00,68.0,59.0,30.09,East,89,0.0,0.0,74,0.00,,,0.00,,2013-10-30 23:53:00,
2013-10-30 19:11:00,67.0,58.0,30.10,East,89,0.0,0.0,74,0.00,,,0.00,,2013-10-31 00:11:00,
2013-10-30 19:22:00,66.0,59.0,30.10,East,89,0.0,0.0,77,0.00,,,0.00,,2013-10-31 00:22:00,
2013-10-30 19:42:00,66.0,59.0,30.11,East,89,0.0,0.0,77,0.00,,,0.00,,2013-10-31 00:42:00,
2013-10-30 19:52:00,65.0,58.0,30.11,East,89,0.0,0.0,78,0.00,,,0.00,,2013-10-31 00:52:00,
2013-10-30 20:12:00,65.0,58.0,30.10,East,89,0.0,0.0,79,0.00,,,0.00,,2013-10-31 01:12:00,
2013-10-30 20:22:00,64.0,58.0,30.10,East,89,0.0,0.0,80,0.00,,,0.00,,2013-10-31 01:22:00,
2013-10-30 20:42:00,64.0,58.0,30.11,East,89,0.0,0.0,81,0.00,,,0.00,,2013-10-31 01:42:00,
2013-10-30 20:52:00,63.0,57.0,30.11,East,89,0.0,0.0,82,0.00,,,0.00,,2013-10-31 01:52:00,
2013-10-30 21:12:00,63.0,58.0,30.11,East,89,0.0,0.0,83,0.00,,,0.00,,2013-10-31 02:12:00,
2013-10-30 21:22:00,63.0,58.0,30.11,East,89,0.0,0.0,83,0.00,,,0.00,,2013-10-31 02:22:00,
2013-10-30 22:12:00,61.0,57.0,30.11,East,80,0.0,0.0,87,0.00,,,0.00,,2013-10-31 03:12:00,
2013-10-30 22:22:00,61.0,57.0,30.11,East,81,0.0,0.0,87,0.00,,,0.00,,2013-10-31 03:22:00,
2013-10-30 22:44:00,61.0,57.0,30.12,East,81,0.0,0.0,86,0.00,,,0.00,,2013-10-31 03:44:00,
2013-10-30 22:55:00,60.0,56.0,30.11,East,81,0.0,0.0,87,0.00,,,0.00,,2013-10-31 03:55:00,
2013-10-30 23:14:00,60.0,56.0,30.12,East,80,0.0,0.0,86,0.00,,,0.00,,2013-10-31 04:14:00,
2013-10-30 23:24:00,60.0,56.0,30.11,East,80,0.0,0.0,86,0.00,,,0.00,,2013-10-31 04:24:00,
2013-10-30 23:43:00,60.0,55.0,30.11,East,81,0.0,0.0,85,0.00,,,0.00,,2013-10-31 04:43:00,
2013-10-30 23:54:00,60.0,56.0,30.11,East,81,0.0,0.0,86,0.00,,,0.00,,2013-10-31 04:54:00,